This is the latest recevied weather packets stored in our database for station/object KB2M. If no packets are shown the sender has not sent any weather packets the latest 10 day(s).
| Time | Temp. | Humidity | Pressure | Rain* | Wind** | Luminosity | Snow |
|---|---|---|---|---|---|---|---|
| 1788054544 | 26.67° C | 89% | 1021.3 hPa | 0 mm | - | - | - |
| 1788053944 | 26.67° C | 88% | 1020.9 hPa | 0 mm | - | - | - |
| 1788053344 | 26.67° C | 88% | 1020.9 hPa | 0 mm | - | - | - |
| 1788052714 | 26.67° C | 87% | 1020.9 hPa | 0 mm | - | - | - |
| 1788052114 | 26.67° C | 85% | 1020.6 hPa | 0 mm | - | - | - |
| 1788051514 | 27.22° C | 85% | 1020.3 hPa | 0 mm | - | - | - |
| 1788050884 | 27.22° C | 83% | 1020.3 hPa | 0 mm | - | - | - |
| 1788050254 | 27.22° C | 82% | 1020.3 hPa | 0 mm | - | - | - |
| 1788049624 | 27.22° C | 81% | 1019.9 hPa | 0 mm | - | - | - |
| 1788048994 | 27.22° C | 82% | 1020.3 hPa | 0 mm | - | - | - |
| 1788048394 | 26.67° C | 84% | 1019.9 hPa | 0 mm | - | - | - |
| 1788047764 | 26.67° C | 86% | 1019.9 hPa | 0 mm | - | - | - |
| 1788047134 | 26.67° C | 85% | 1019.9 hPa | 0 mm | - | - | - |
| 1788046504 | 27.22° C | 85% | 1019.9 hPa | 0 mm | - | - | - |
| 1788045874 | 27.22° C | 85% | 1019.9 hPa | 0 mm | - | - | - |
| 1788045244 | 27.22° C | 84% | 1019.6 hPa | 0 mm | - | - | - |
| 1788044614 | 27.22° C | 82% | 1019.3 hPa | 0 mm | - | - | - |
| 1788044014 | 27.78° C | 80% | 1019.3 hPa | 0 mm | - | - | - |
| 1788043384 | 28.33° C | 79% | 1018.9 hPa | 0 mm | - | - | - |
| 1788042784 | 28.89° C | 79% | 1018.6 hPa | 0 mm | - | - | - |
| 1788042184 | 28.89° C | 80% | 1018.2 hPa | 0 mm | - | - | - |
| 1788041555 | 28.33° C | 84% | 1018.6 hPa | 0 mm | - | - | - |
| 1788040954 | 29.44° C | 83% | 1018.9 hPa | 0 mm | - | - | - |
| 1788040354 | 29.44° C | 82% | 1019.3 hPa | 0 mm | - | - | - |
| 1788039725 | 29.44° C | 83% | 1018.9 hPa | 0 mm | - | - | - |
* Rain latest hour (hover to see other rain measurements)
** Current wind speed in m/s (hover to see current wind gust speed)